This is the latest recevied weather packets stored in our database for station/object DG8SF-13. If no packets are shown the sender has not sent any weather packets the latest 10 day(s).
| Time | Temp. | Humidity | Pressure | Rain* | Wind** | Luminosity | Snow |
|---|---|---|---|---|---|---|---|
| 1777877205 | 17.78° C | 53% | 1014.4 hPa | 0 mm | - | - | - |
| 1777876889 | 17.22° C | 52% | 1014.5 hPa | 0 mm | - | - | - |
| 1777876584 | 17.78° C | 54% | 1014.4 hPa | 0 mm | - | - | - |
| 1777876266 | 16.67° C | 54% | 1014.5 hPa | 0 mm | - | - | - |
| 1777875956 | 16.67° C | 56% | 1014.4 hPa | 0 mm | - | - | - |
| 1777875643 | 16.11° C | 57% | 1014.5 hPa | 0 mm | - | - | - |
| 1777875332 | 16.11° C | 57% | 1014.5 hPa | 0 mm | - | - | - |
| 1777875018 | 15.56° C | 59% | 1014.5 hPa | 0 mm | - | - | - |
| 1777874707 | 15.56° C | 58% | 1014.5 hPa | 0 mm | - | - | - |
| 1777874393 | 15° C | 62% | 1014.5 hPa | 0 mm | - | - | - |
| 1777874083 | 13.89° C | 66% | 1014.6 hPa | 0 mm | - | - | - |
| 1777873770 | 12.78° C | 68% | 1014.6 hPa | 0 mm | - | - | - |
| 1777873458 | 12.22° C | 69% | 1014.5 hPa | 0 mm | - | - | - |
| 1777873146 | 11.11° C | 76% | 1014.5 hPa | 0 mm | - | - | - |
| 1777872834 | 10.56° C | 76% | 1014.6 hPa | 0 mm | - | - | - |
| 1777872521 | 10.56° C | 77% | 1014.6 hPa | 0 mm | - | - | - |
| 1777872212 | 10° C | 77% | 1014.6 hPa | 0 mm | - | - | - |
| 1777871899 | 10° C | 78% | 1014.7 hPa | 0 mm | - | - | - |
| 1777871587 | 9.44° C | 79% | 1014.8 hPa | 0 mm | - | - | - |
| 1777871273 | 9.44° C | 80% | 1014.7 hPa | 0 mm | - | - | - |
| 1777870962 | 8.89° C | 81% | 1014.7 hPa | 0 mm | - | - | - |
| 1777870652 | 8.33° C | 81% | 1014.8 hPa | 0 mm | - | - | - |
| 1777870338 | 8.33° C | 81% | 1014.8 hPa | 0 mm | - | - | - |
| 1777870025 | 8.33° C | 81% | 1014.8 hPa | 0 mm | - | - | - |
| 1777869717 | 8.33° C | 82% | 1014.8 hPa | 0 mm | - | - | - |
* Rain latest hour (hover to see other rain measurements)
** Current wind speed in m/s (hover to see current wind gust speed)